Location: Caltech
(34.1382°N, 118.1253°W)
Time: 06:13:05
(UTC-07:00)

Hamsat - Visible Passes

Search period start: 27 June 2016 00:00
Search period end: 07 July 2016 00:00
Orbit: 587 x 619 km, 97.6° (Epoch: 26 June)

Date Brightness Start Highest point End Pass type
(mag) Time Alt. Az. Time Alt. Az. Time Alt. Az.
30 Jun ? 04:18:03 10° ENE 04:19:21 11° E 04:20:39 10° ESE visible
01 Jul ? 04:28:54 10° NE 04:31:32 16° E 04:34:06 10° SE visible
02 Jul ? 04:40:22 10° NE 04:43:40 22° E 04:46:56 10° SSE visible
03 Jul ? 04:52:03 10° NE 04:55:48 31° E 04:59:30 10° SSE visible
04 Jul ? 05:03:53 10° NNE 05:07:54 43° E 05:11:53 10° S visible
05 Jul ? 05:15:49 10° NNE 05:19:59 63° E 05:24:07 10° S visible
